Location: Москва
(55.7504°N, 37.6175°E)
Time: 19:07:00
(UTC+03:00)

Nauka - Pass Details

Date: 03 October 2021
Orbit: 417 x 423 km, 51.6° (Epoch: 24 October)

Event Time Altitude Azimuth Distance (km) Brightness Sun altitude
Rises 19:45:44 0° 271° (W) 2,367 ? -15.6°
Reaches altitude 10° 19:49:08 10° 234° (SW) 1,500 ? -16.1°
Maximum altitude 19:50:08 11° 217° (SW) 1,436 ? -16.2°
Drops below altitude 10° 19:51:08 10° 200° (SSW) 1,498 ? -16.4°
Enters shadow 19:52:26 - 181° (S) 1,735 ? -16.6°
